www.pogodaiklimat.ru

Погода и климат >> Архив погоды >> Бенин >> Котону


ПОГОДА в Котону

  • Прогноз погоды в Котону
  • Монитор погоды в Котону

АРХИВ ПОГОДЫ в Котону

Время (UTC), дата Ветер
(напр.,м/с)
 
Видим.   Явления Облачность Т
(С)
Тd
(С)
f
(%)
Тe
(С)
Тes
(С)
Комфортность P
(гПа)
Po
(гПа)
Тmin
(С)
Tmax
(С)
R
(мм)
R24
(мм)
S
(см)
06 10.07 ЮЗ 7 8000 м 9/5 330 м
[Cu Sc Ac trans Ci sp]
+26.4 +23.7 85 +36 +36 очень
душно
1014.4 1013.3 +26.0
09 10.07 З 6 10 км 9/8 330 м
[Cu Sc Ac und Ci sp]
+26.9 +23.4 81 +36 +37 очень
душно
1015.5 1014.4
12 10.07 ЮЗ 6 10 км 9/5 330 м
[Cu Sc Ac trans Ci sp]
+28.4 +24.0 77 +39 +42 очень
душно
1014.7 1013.6
15 10.07 ЮЗ 6 10 км 8/1 360 м
[Cu Sc Ac trans Ci sp]
+28.5 +23.5 74 +39 +41 очень
душно
1012.9 1011.7
18 10.07 ЮЗ 5 10 км 9/1 360 м
[Cu Sc Ac trans Ci sp]
+27.0 +23.5 81 +37 +37 очень
душно
1013.2 1012.1 +29.4
21 10.07 ЮЗ 5 10 км 5/1 360 м
[Sc Ci sp]
+26.4 +23.1 82 +35 +35 очень
душно
1014.2 1013.1
00 11.07 ЮЗ 7 10 км 9/4 360 м
[Sc Ac trans Ci sp]
+26.0 +23.1 84 +35 +35 очень
душно
1013.7 1012.6
03 11.07 З 7 8000 м 9/5 330 м
[Sc Ac und Ci sp]
+25.9 +23.0 84 +35 +35 очень
душно
1012.9 1011.8
06 11.07 З 7 8000 м 10/8 330 м
[Cu Sc Ac As]
+25.9 +23.2 85 +35 +35 очень
душно
1013.9 1012.8 +25.7
09 11.07 ЮЗ 8 10 км 9/5 360 м
[Cu Sc Ac trans Ci sp]
+27.9 +23.3 76 +38 +38 очень
душно
1015.0 1013.9
12 11.07 ЮЗ 7 10 км 9/4 360 м
[Cu Sc Ac und Ci sp]
+28.1 +23.5 76 +38 +40 очень
душно
1013.8 1012.7
15 11.07 ЮЗ 7 10 км 9/5 360 м
[Cb cap Ac As Ci sp]
+27.5 +23.7 80 +38 +39 очень
душно
1011.6 1010.5
18 11.07 З 4 8000 м гроза, ливневой дождь 10/5 360 м
[Cb cap Ac As]
+24.6 +23.4 93 +33 +33 очень
душно
1013.2 1012.1 +29.1 4
21 11.07 ЮЗ 5 8000 м в посл. час дождь {гроза} 10/8 300 м
[Cb cap Ac As]
+24.5 +23.3 93 +33 +33 очень
душно
1013.4 1012.3
00 12.07 ЮЗ 5 8000 м {гроза, дождь} 9/6 300 м
[Sc Ac As]
+25.6 +23.8 90 +35 +35 очень
душно
1013.4 1012.3 1
03 12.07 ЮЗ 6 8000 м зарница 9/6 240 м
[Cb cap Ac As]
+25.7 +23.6 88 +35 +35 очень
душно
1012.9 1011.8
06 12.07 З 5 800 м гроза, ливневой дождь 10/4 300 м
[Cb cap As op]
+22.8 +22.1 96 +31 +31 очень
душно
1014.5 1013.3 +22.8 54
09 12.07 З 4 5000 м гроза, ливневой дождь 10/5 330 м
[Cb cap Ac As]
+24.1 +23.6 97 +33 +34 очень
душно
1015.4 1014.2
12 12.07 ЮЗ 5 8000 м слаб. дождь {гроза} 10/6 330 м
[Cb cap Ac und]
+25.1 +24.1 94 +35 +36 очень
душно
1014.9 1013.7 78
15 12.07 З 5 8000 м {дождь} 10/8 330 м
[Cb cap Ac As]
+25.9 +23.9 89 +36 +36 очень
душно
1012.6 1011.5
18 12.07 ЮЗ 4 8000 м {дождь} 10/4 330 м
[Cu Sc Ac lent Ci sp]
+25.5 +23.4 88 +34 +34 очень
душно
1012.4 1011.2 +26.1 20
21 12.07 ЮЗ 4 8000 м 6/1 330 м
[Sc Ci sp]
+25.3 +23.5 90 +34 +34 очень
душно
1013.8 1012.8
00 13.07 ЮЗ 5 8000 м 9/6 330 м
[Sc Ci sp]
+25.4 +23.6 90 +35 +35 очень
душно
1014.1 1013.0
03 13.07 ЮЗ 5 8000 м 9/8 330 м
[Sc Ac trans Ci sp]
+25.2 +23.3 89 +34 +34 очень
душно
1013.6 1012.5
06 13.07 ЮЗ 4 8000 м 9/8 300 м
[Cu Sc Ac As]
+25.1 +23.3 90 +34 +34 очень
душно
1014.6 1013.4 +24.9 696
09 13.07 ЮЗ 5 10 км 9/3 360 м
[Cu Sc Ac trans Ci sp]
+27.2 +23.4 80 +37 +39 очень
душно
1016.1 1015.0
12 13.07 ЮЗ 4 10 км 9/5 360 м
[Cu Sc Ac trans Ci sp]
+28.1 +23.7 77 +39 +43 очень
душно
1015.2 1014.0
15 13.07 ЮЗ 4 10 км 9/6 360 м
[Cu Sc Ac und Ci sp]
+27.8 +23.6 78 +38 +40 очень
душно
1013.1 1011.9
18 13.07 ЮЗ 3 10 км 9/4 360 м
[Cu Sc Ac trans Ci sp]
+26.3 +23.8 86 +36 +36 очень
душно
1012.7 1011.5 +28.7
21 13.07 ЮЗ 4 10 км 9/4 360 м
[Sc Ac trans Ci sp]
+25.9 +24.1 90 +36 +36 очень
душно
1014.5 1013.4
00 14.07 ЮЗ 3 10 км 9/5 330 м
[Sc Ac trans Ci sp]
+25.5 +23.7 90 +35 +35 очень
душно
1014.7 1013.6
03 14.07 З 3 8000 м 9/4 330 м
[Sc Ac trans Ci sp]
+24.8 +23.4 92 +33 +33 очень
душно
1013.1 1012.0
06 14.07 СЗ 2 400 м туман 9/9 240 м
[St]
+23.6 +23.3 98 +32 +32 очень
душно
1014.3 1013.1 +23.5
09 14.07 З 4 6000 м {туман} 9/5 330 м
[Cu Sc Ac trans Ci sp]
+26.9 +23.4 81 +36 +39 очень
душно
1015.0 1013.9
12 14.07 ЮЗ 5 10 км {туман} 9/3 330 м
[Cu Sc Ci sp]
+27.5 +23.3 78 +37 +43 очень
душно
1013.9 1012.8
15 14.07 ЮЗ 5 10 км 6/1 400 м
[Cu med, cong Ci]
+27.9 +23.5 77 +38 +42 очень
душно
1011.9 1010.8
18 14.07 ЮЗ 5 10 км 9/1 360 м
[Sc Ac trans Ci sp]
+26.1 +23.0 83 +35 +35 очень
душно
1011.7 1010.6 +28.5
21 14.07 ЮЗ 3 10 км 6/1 360 м
[Sc Ci sp]
+25.8 +23.0 85 +34 +34 очень
душно
1013.0 1011.9
00 15.07 ЮЗ 4 10 км 6/0
[Ci sp]
+25.6 +23.1 86 +34 +34 очень
душно
1012.5 1011.4
03 15.07 ЮЗ 5 8000 м 8/4 330 м
[Sc Ci sp]
+25.7 +23.4 87 +35 +35 очень
душно
1011.8 1010.7
06 15.07 З 6 8000 м 9/3 330 м
[Sc Ac und Ci sp]
+25.2 +23.4 90 +34 +34 очень
душно
1011.7 1010.5 +25.1
09 15.07 З 7 8000 м 9/5 330 м
[Cu Sc Ac As]
+25.6 +23.3 87 +34 +35 очень
душно
1014.0 1012.8
12 15.07 ЮЗ 6 10 км {гроза, дождь} 9/4 330 м
[Cb cap Ac As]
+26.5 +23.6 84 +36 +38 очень
душно
1012.3 1011.2 4
15 15.07 ЮЗ 6 10 км 9/4 360 м
[Cu Sc Ac trans Ci sp]
+26.6 +22.7 79 +35 +36 очень
душно
1009.9 1008.8
18 15.07 ЮЗ 4 10 км 9/3 360 м
[Cu Sc Ac trans Ci sp]
+25.5 +22.2 82 +33 +33 очень
душно
1011.1 1010.0 +27.9 4
21 15.07 Ю 3 10 км 9/1 360 м
[Sc Ac trans Ci sp]
+25.3 +23.2 88 +34 +34 очень
душно
1012.7 1011.6
00 16.07 ЮЗ 4 10 км 9/3 360 м
[Sc Ac trans Ci sp]
+25.1 +23.5 91 +34 +34 очень
душно
1011.8 1010.7
03 16.07 ЮЗ 5 8000 м 9/3 330 м
[Sc Ac As Ci sp]
+24.8 +23.6 93 +34 +34 очень
душно
1011.1 1010.0
06 16.07 З 2 6000 м 9/3 300 м
[Cu Sc Ac und Ci sp]
+24.3 +23.3 94 +33 +33 очень
душно
1012.7 1011.6 +24.3 4
09 16.07 ЮЗ 4 10 км 10/5 360 м
[Cu Sc Ac As]
+25.7 +23.6 88 +35 +36 очень
душно
1015.4 1014.3
12 16.07 ЮЗ 2 10 км 10/6 360 м
[Cb cap Ac As]
+25.1 +23.5 91 +34 +36 очень
душно
1014.3 1013.2
15 16.07 ЮЗ 4 10 км 10/6 360 м
[Cb cap Ac und]
+25.2 +23.1 88 +34 +34 очень
душно
1012.2 1011.0
18 16.07 Ю 2 10 км 9/3 360 м
[Cb cap Ac As Ci sp]
+25.0 +22.7 87 +33 +33 очень
душно
1012.3 1011.2 +25.8
21 16.07 ЮЗ 2 10 км 9/1 360 м
[Sc Ac As Ci sp]
+24.5 +23.1 92 +33 +33 очень
душно
1014.6 1013.4
00 17.07 ЮЗ 2 10 км 9/1 360 м
[Sc Ac und Ci sp]
+24.3 +23.4 95 +33 +33 очень
душно
1014.3 1013.2

 

Местоположение метеостанции Котону (Бенин): широта 6.35 долгота 2.38 высота над уровнем моря 9 м.

В архиве по умолчанию представлена погода в Котону за последнюю неделю. Архивные данные за месяц целиком и за предыдущие месяцы, начиная с января 2011 года, Вы можете получить, выбрав интересующий диапазон дат из раскрывающегося списка и нажав кнопку "Ввод!".


*Определитесь, кто Вы:
робот инопланетянин человек

Внимание! Время в таблицах - всемирное. Для получения местного времени необходимо прибавить поправку, которая равна 1 ч.

Смотрите также архив погоды в соседних городах и на ближайших метеорологических станциях:

Погода в Боиконе (Бенин) (97 км)
Погода в Таблигбо (Того) (101 км)
Погода в Лагосе (Нигерия) (108 км)
Погода в Лагосе Ошоди (Нигерия) (112 км)
Погода в Ломе (Того) (127 км)
Погода в Акатзи (Гана) (177 км)
Погода в Иджебу-Оде (Нигерия) (179 км)
Погода в Саве (Бенин) (187 км)
Погода в Атакпаме (Того) (195 км)
Погода в Ада (Гана) (204 км)

Пояснения к столбцам:

Ветер - указаны скорость ветра в м/с - средняя за 10 мин, порывы в срок и между сроками (в фигурных скобках) и направление, откуда дует ветер: С - северный, СВ - северо-восточный, В - восточный, ЮВ - юго-восточный, Ю - южный, ЮЗ - юго-западный, З - западный, СЗ - северо-западный.
Видимость - горизонтальная дальность видимости в метрах или километрах. При видимости от 1 до 10 км при отсутствии осадков обычно наблюдается дымка, при ухудшении видимости до 1 км и менее - туман. В сухую погоду видимость может ухудшаться дымом, пылью или мглою.
Явления - указаны атмосферные явления, наблюдавшиеся в срок или в последний час перед сроком; фигурными скобками обозначены явления, наблюдавшиеся между сроками (за 1-3 часа до срока); квадратными скобками обозначены град или гололедные отложения с указанием их диаметра в мм.
Облачность - указаны через наклонную черту общая и нижняя облачность в баллах и высота нижней границы облаков в метрах; квадратными скобками обозначены формы облаков: Ci - перистые, Cs - перисто-слоистые, Cc - перисто-кучевые, Ac - высококучевые, As - высокослоистые, Sc - слоисто-кучевые, Ns - слоисто-дождевые, Cu - кучевые, Cb - кучево-дождевые. Подробнее классификацию облаков см. в Атласе облаков (PDF).
T - Температура воздуха - температура, измеренная на высоте 2 м над землей.
Td - Температура точки росы - температура, при понижении до которой содержащийся в воздухе водяной пар достигнет насыщения.
f - Относительная влажность воздуха - влажноcть воздуха, измеренная на высоте 2 м над землей.
Te - Эффективная температура - температура, которую ощущает одетый по сезону человек в тени. Характеристика душности погоды. При расчете учитывается влияние влажности воздуха и скорости ветра на теплоощущения человека.
Tes - Эффективная температура на солнце - температура, которую ощущает человек, с поправкой на солнечный нагрев. Характеристика знойности погоды. Зависит от высоты солнца над горизонтом, облачности и скорости ветра. Ночью, в пасмурную погоду, а также при ветре 12 м/с и более поправка равна нулю.
P - Атмосферное давление - приведенное к уровню моря атмосферное давление.
Po - Атмосферное давление - измеренное на уровне метеостанции атмосферное давление.
Tmin - Минимальная температура - минимум температуры воздуха на высоте 2 м над землей.
Tmax - Максимальная температура - максимум температуры воздуха на высоте 2 м над землей.
R - Количество осадков - Количество выпавших осадков за период времени, мм. При наведении курсора мыши на число - период времени, за который выпало указанное количество осадков.
R24 - Количество осадков - Количество выпавших осадков за 24 часа, мм.
S - Снежный покров - Высота снежного покрова, см. При наведении курсора мыши на число - состояние снежного покрова и степень покрытия местности в баллах.